TimeCST,TemperatureF,Dew PointF,Humidity,Sea Level PressureIn,VisibilityMPH,Wind Direction,Wind SpeedMPH,Gust SpeedMPH,PrecipitationIn,Events,Conditions,WindDirDegrees,DateUTC
12:53 AM,51.1,48.9,92,30.22,10.0,Calm,Calm,-,N/A,,Clear,0,2011-11-23 06:53:00
1:53 AM,50.0,48.0,93,30.22,10.0,Calm,Calm,-,N/A,,Clear,0,2011-11-23 07:53:00
2:53 AM,50.0,46.9,89,30.22,8.0,NNW,5.8,-,N/A,,Clear,330,2011-11-23 08:53:00
3:53 AM,50.0,48.0,93,30.22,9.0,NW,5.8,-,N/A,,Clear,320,2011-11-23 09:53:00
4:53 AM,48.9,46.9,93,30.23,9.0,NNW,4.6,-,N/A,,Clear,330,2011-11-23 10:53:00
5:53 AM,48.0,46.0,93,30.24,9.0,NNW,4.6,-,N/A,,Clear,340,2011-11-23 11:53:00
6:53 AM,48.0,46.0,93,30.27,9.0,Calm,Calm,-,0.01,,Clear,0,2011-11-23 12:53:00
7:53 AM,50.0,48.0,93,30.29,9.0,NW,3.5,-,N/A,,Clear,310,2011-11-23 13:53:00
8:53 AM,54.0,50.0,86,30.30,10.0,NW,4.6,-,N/A,,Clear,320,2011-11-23 14:53:00
9:53 AM,60.1,50.0,69,30.30,10.0,North,11.5,-,N/A,,Clear,10,2011-11-23 15:53:00
10:53 AM,63.0,50.0,63,30.30,10.0,NNE,10.4,-,N/A,,Clear,20,2011-11-23 16:53:00
11:53 AM,66.2,50.0,56,30.28,10.0,Variable,5.8,-,N/A,,Clear,0,2011-11-23 17:53:00
12:53 PM,68.0,48.9,50,30.24,10.0,North,4.6,-,N/A,,Clear,360,2011-11-23 18:53:00
1:53 PM,70.0,50.0,49,30.22,10.0,Variable,5.8,-,N/A,,Clear,0,2011-11-23 19:53:00
2:53 PM,71.1,48.9,45,30.21,10.0,NE,3.5,-,N/A,,Clear,50,2011-11-23 20:53:00
3:53 PM,72.0,48.9,44,30.21,10.0,North,6.9,-,N/A,,Clear,360,2011-11-23 21:53:00
4:53 PM,69.1,48.0,47,30.21,10.0,North,6.9,-,N/A,,Clear,350,2011-11-23 22:53:00
5:53 PM,63.0,48.0,58,30.22,10.0,North,4.6,-,N/A,,Clear,360,2011-11-23 23:53:00
6:53 PM,59.0,48.0,67,30.24,10.0,North,4.6,-,N/A,,Clear,10,2011-11-24 00:53:00
7:53 PM,57.9,48.0,70,30.26,10.0,NNE,4.6,-,N/A,,Clear,30,2011-11-24 01:53:00
8:53 PM,57.9,48.0,70,30.26,10.0,NNE,5.8,-,N/A,,Clear,30,2011-11-24 02:53:00
9:53 PM,54.0,46.9,77,30.27,10.0,Calm,Calm,-,N/A,,Clear,0,2011-11-24 03:53:00
10:53 PM,53.1,46.9,80,30.27,10.0,Calm,Calm,-,N/A,,Clear,0,2011-11-24 04:53:00
11:53 PM,53.1,48.0,83,30.26,10.0,NNE,3.5,-,N/A,,Clear,30,2011-11-24 05:53:00